Theta_e
317 313 312 314 313 311 311 314 316 317 317 317 318 319 320 318 315 316 317 316 315 317
314 313 312 314 314 313 315 315 316 313 312 314 318 313 315 316 314 314 313 314 317 314
311 312 313 313 312 313 313 313 312 310 310 310 311 311 314 311 311 310 310 310 313 314
310 311 311 309 310 309 308 311 310 308 308 308 308 310 310 309 307 307 308 310 311 312
311 310 308 309 307 308 307 308 308 308 306 306 306 306 306 305 306 306 307 308 309 310
310 307 306 308 306 305 305 305 307 304 303 303 304 305 305 304 304 304 306 308 308 309
305 305 305 305 305 305 304 303 303 304 304 305 305 305 305 304 304 304 305 305 307 310
304 305 305 305 304 303 303 303 303 303 303 304 306 304 305 306 305 305 304 306 306 309
302 304 305 306 304 303 303 304 309 308 308 309 309 301 303 304 306 303 304 303 304 306
302 305 306 306 305 306 306 308 309 309 309 308 309 300 300 303 304 304 304 303 303 302
305 305 306 306 307 309 309 308 308 308 308 309 307 299 298 302 307 307 306 304 304 303
305 306 306 307 308 310 309 309 308 309 309 309 310 298 299 304 311 309 307 303 303 304
307 307 307 309 307 309 309 308 309 309 311 306 308 297 298 304 308 305 303 306 304 299
307 307 308 309 308 309 309 309 308 309 311 310 306 305 297 298 309 308 306 305 303 301
Wind_Speed
18 12 13 13 13 12 13 11 15 15 15 15 13 13 12 8 7 8 8 7 6 5
15 13 13 14 15 12 15 11 15 10 12 14 12 8 8 7 7 7 7 8 6 4
15 14 12 13 14 16 13 13 11 8 9 10 7 6 7 5 6 7 5 5 6 4
15 13 12 10 11 7 9 10 9 8 8 6 5 5 5 5 5 6 6 6 6 4
13 12 10 10 10 10 9 9 8 9 7 7 6 6 6 6 6 6 6 5 7 4
11 9 7 10 8 8 8 8 8 7 7 6 5 5 5 6 6 6 7 7 7 7
8 6 8 7 7 7 6 6 7 6 6 7 7 6 6 4 5 5 6 6 7 7
6 7 7 7 7 6 6 6 6 5 4 4 4 5 7 3 5 3 5 5 6 2
5 5 5 6 4 4 6 7 7 6 5 2 4 8 9 10 6 5 5 7 6 8
4 7 6 5 7 7 7 7 7 7 7 7 10 11 9 7 4 5 6 7 7 7
7 8 6 4 5 6 6 7 7 9 9 8 9 9 8 5 4 4 8 7 6 5
8 8 9 8 8 8 7 5 6 7 7 7 11 12 10 3 6 7 11 7 7 6
6 6 7 7 7 6 5 6 5 6 8 12 11 14 13 10 6 8 5 8 8 12
5 6 7 8 5 6 7 7 7 7 8 10 13 14 13 13 5 5 5 8 7 7
Wind_Direction
313 312 308 303 306 312 304 311 306 304 312 305 300 309 303 299 307 303 308 301 321 317
316 316 305 306 308 299 310 305 314 329 321 310 316 312 304 310 306 315 314 315 304 303
323 309 312 324 326 319 311 325 325 332 317 315 325 313 313 336 330 322 321 310 302 291
318 317 322 319 324 316 318 317 330 334 338 350 337 331 344 343 330 323 323 318 307 296
319 319 335 320 341 327 331 337 337 347 349 351 352 349 349 341 335 327 319 327 312 308
329 349 325 333 331 334 337 337 356 349 349 338 337 346 352 339 330 320 325 329 321 334
356 339 337 326 329 345 347 347 346 353 344 346 356 352 332 332 321 326 330 318 315 299
337 345 339 346 353 351 334 326 324 313 305 319 334 1 336 326 314 6 340 325 349 21
355 316 347 352 10 303 297 287 292 320 331 50 48 359 347 352 34 25 10 18 31 36
322 314 334 338 315 356 356 348 360 3 24 38 44 4 352 2 44 46 32 29 50 55
321 345 336 337 344 10 23 24 10 19 25 31 52 9 347 350 59 104 94 54 52 57
348 5 356 12 17 18 22 25 24 26 25 40 47 11 356 353 62 69 83 70 44 38
10 9 12 31 29 9 26 32 15 33 37 38 53 25 8 7 56 63 52 77 60 42
15 21 9 1 13 12 19 20 27 30 41 63 30 43 19 9 40 53 61 57 58 54